Miscellaneous Local Product
Issued by NWS North Platte, NE

Home | Current Version | Previous Version | Text Only | Print | Product List | Glossary On
Versions: 1 2 3 4 5 6 7 8 9 10 11 12 13 14 15 16 17 18 19 20 21 22 23 24 25 26 27 28 29 30 31 32 33 34 35 36 37 38 39 40 41 42 43 44 45 46 47 48 49 50
659
AXUS43 KLBF 010010
MISLBF


WESTERN AND NORTH CENTRAL NEBRASKA HOURLY WEATHER ROUNDUP
NATIONAL WEATHER SERVICE NORTH PLATTE NE
700 PM CDT SUN APR 30 2017

NOTE: "FAIR" INDICATES FEW OR NO CLOUDS BELOW 12,000 FEET WITH NO
SIGNIFICANT WEATHER AND/OR OBSTRUCTIONS TO VISIBILITY.

NOTE: STATIONS NOT REPORTING VARIABLES SUCH AS SKY/WEATHER OR
PRESSURE ARE PROVIDED BY RAWS AND APRS NETWORKS AND ARE NOT UNDER
NATIONAL WEATHER SERVICE QUALITY CONTROL.

...OBSERVATIONS IN AND NEAR THE EASTERN PANHANDLE OF NEBRASKA...

CITY           SKY/WX    TMP DP  RH WIND       PRES   REMARKS
PINE RIDGE     CLOUDY    56  22  26 N13G22    29.83S
CHADRON        CLOUDY    57  24  28 N16       29.83F
ALLIANCE       CLOUDY    54  20  26 N23       29.81S
SIDNEY         CLOUDY    54  22  28 N28G38    29.80S
$$

...OBSERVATIONS IN NORTHERN NEBRASKA AND FAR SOUTHERN SOUTH DAKOTA...

CITY           SKY/WX    TMP DP  RH WIND       PRES   REMARKS
WINNER         FAIR      50  23  34 NE13      29.80R
VALENTINE      CLOUDY    51  17  26 N15G25    29.79S
THEDFORD       CLOUDY    47  21  34 N17G26    29.75S
AINSWORTH      CLOUDY    45  25  44 N14       29.76S
O`NEILL        SNOW      33  32  94 N18       29.73F VSB 1/2 WCI  22
ORD            SNOW      33  31  92 N26G32    29.65F VSB 1/2 WCI  20
BROKEN BOW     LGT SNOW  34  33  96 N32G40    29.68F FOG     WCI  20
VALENTINE NWR    N/A     47  17  30 N15G25      N/A
HALSEY           N/A     43  19  37 N14G28      N/A
BUTTE            N/A     33  31  93 N17G24      N/A  WCI  22
CHAMBERS         N/A     33  32  98 N7          N/A  WCI  27
EWING            N/A     34  32  93 N5G13       N/A  WCI  30
$$

...OBSERVATIONS IN SOUTHWEST NEBRASKA AND FAR NORTHEAST COLORADO...

CITY           SKY/WX    TMP DP  RH WIND       PRES   REMARKS
HOLYOKE        FAIR      54  21  28 N24G41    29.77S
IMPERIAL       CLOUDY    48  19  31 N24G36    29.74S
OGALLALA       CLOUDY    52  21  29 N21G28    29.76S
NORTH PLATTE   CLOUDY    41  30  65 N23G35    29.74S
MCCOOK         LGT SNOW  34  50 100 N31G38    29.72S WCI  20
LEXINGTON      LGT SNOW  35  32  90 N29G39    29.67R WCI  21
STAPLETON        N/A     37  28  71 E12G24      N/A  WCI  29
GOTHENBURG       N/A     32  28  84 NW20        N/A  WCI  20
CALLAWAY         N/A     34  32  93 N25         N/A  WCI  21
$$

...OBSERVATIONS IN CENTRAL LINCOLN COUNTY AREA...

CITY           SKY/WX    TMP DP  RH WIND       PRES   REMARKS
N.P. AIRPORT   CLOUDY    41  30  65 N23G35    29.74S
N.P. DOWNTOWN    N/A     43  25  48 N16G30      N/A
N.P. SOUTHEAST   N/A     42  25  51 N13G25      N/A
N.P. HILLCREST   N/A     43  26  51 NE25G40     N/A
$$

...SOME OBSERVATIONS FROM AROUND THE REGION...

CITY           SKY/WX    TMP DP  RH WIND       PRES   REMARKS
DENVER         MOSUNNY   59  17  19 N31G41    29.82S
LIMON          SUNNY     53  23  31 N30G40    29.81R
ASPEN          CLOUDY    45  19  35 NW8       30.05R
LARAMIE        CLOUDY    47  14  26 NW25G36   29.93R
CASPER         MOSUNNY   55  21  26 W17       29.92S
CHEYENNE       CLOUDY    53  17  24 NW25G37   29.99R
SCOTTSBLUFF    SUNNY     58  24  27 N17       29.84S
GRAND ISLAND   CLOUDY    35  35 100 N21       29.61R WCI  24
OMAHA          LGT RAIN  43  39  86 N13       29.54R FOG
SIOUX FALLS    RAIN      39  39 100 NE12G21   29.73R FOG     WCI  32
PIERRE         PTSUNNY   56  19  23 NE17      29.81S
RAPID CITY     SUNNY     58  21  24 N16       29.85F
BISMARCK       MOSUNNY   63  27  25 E6        29.86F
KANSAS CITY    CLOUDY    51  39  63 S13G28    29.48S
HILL CITY      LGT SNOW  35  33  92 N28G36    29.67R FOG     WCI  22
WICHITA        CLOUDY    46  43  89 W7        29.46R
DODGE CITY     LGT SNOW  34  32  92 NW26G39   29.67R FOG     WCI  21
OKLAHOMA CITY  PTSUNNY   53  37  54 W24G35    29.65R
DALLAS         MOSUNNY   64  32  30 W30G41    29.83R
AMARILLO       CLOUDY    55  25  31 NW25G38   29.85R
$$




USA.gov is the U.S. government's official web portal to all federal, state and local government web resources and services.